Flag for Germany Weather past 2 weeks in Schwabach, Bavaria, Germany

Now
45 °F

Sunny.


Feels Like: 45 °F
Forecast: 34 / 58 °F
Wind: 2 mph from Northeast

Location: Nuernberg

Current Time: Apr 18, 2015 at 9:26:24 PM

Latest Report: Apr 18, 2015 at 8:50 PM


Visibility: 10 mi

Pressure: 30.21 "Hg

Humidity: 49%

Dew point: 27 °F

Location of SchwabachLocation

Historic Weather in Schwabach — Graph

°F

Schwabach temperature yesterday

Maximum temperature yesterday: 59 °F (at 12:20 AM)
Minimum temperature yesterday: 41 °F (at 11:50 PM)
Average temperature yesterday: 52 °F

Past Weeks' High & Low Weather Summary

 TemperatureHumidityPressure
High75 °F (Apr 15, 4:50 PM)100% (Apr 9, 7:20 AM)30.60 "Hg (Apr 9, 7:20 AM)
Low25 °F (Apr 6, 6:20 AM)19% (Apr 15, 5:20 PM)29.86 "Hg (Apr 16, 6:50 PM)
Average48 °F62%30.22 "Hg
* Reported Apr 3 8:20 PM — Apr 18 8:20 PM, Schwabach, Weather by CustomWeather, © 2015

Note: Actual official high and low records may vary slightly from our data, if they occured in-between our weather recording intervals... More about our weather records

Advertising

Schwabach weather history for previous 24 hours

 ConditionsComfort  
Time TempWeatherWind HumidityBarometerVisibility
8:20 PM
Sat, Apr 18
45 °FSunny.2 mph49%30.21 "Hg10 mi
7:50 PM48 °FSunny.2 mph40%30.21 "Hg10 mi
7:20 PM50 °FSunny.2 mph37%30.21 "Hg10 mi
6:50 PM50 °FSunny.3 mph35%30.21 "Hg10 mi
6:20 PM50 °FPassing clouds.6 mph37%30.21 "HgN/A
5:50 PM50 °FPassing clouds.5 mph35%30.21 "HgN/A
5:20 PM50 °FPassing clouds.8 mph37%30.21 "HgN/A
4:50 PM50 °FSunny.6 mph35%30.21 "Hg10 mi
4:20 PM50 °FSunny.7 mph35%30.24 "Hg10 mi
3:50 PM50 °FPassing clouds.8 mph37%30.24 "HgN/A
3:20 PM50 °FPassing clouds.8 mph40%30.24 "HgN/A
2:50 PM48 °FSunny.7 mph43%30.24 "Hg10 mi
2:20 PM48 °FSunny.6 mph46%30.24 "Hg10 mi
1:50 PM48 °FScattered clouds.8 mph43%30.24 "HgN/A
1:20 PM46 °FScattered clouds.7 mph50%30.24 "HgN/A
12:50 PM48 °FScattered clouds.6 mph50%30.24 "HgN/A
12:20 PM45 °FPartly sunny.8 mph53%30.24 "HgN/A
11:50 AM45 °FPartly sunny.8 mph53%30.24 "HgN/A
11:20 AM46 °FScattered clouds.10 mph53%30.24 "HgN/A
10:50 AM45 °FScattered clouds.9 mph57%30.24 "HgN/A
10:20 AM45 °FScattered clouds.8 mph57%30.24 "HgN/A
9:50 AM45 °FPassing clouds.8 mph57%30.21 "HgN/A
9:20 AM43 °FPassing clouds.8 mph66%30.21 "HgN/A
8:50 AM41 °FPassing clouds.3 mph70%30.21 "HgN/A
8:20 AM39 °FSunny.1 mph75%30.21 "Hg10 mi
7:50 AM36 °FSunny.1 mph87%30.21 "Hg10 mi
7:20 AM34 °FSunny.1 mph87%30.18 "Hg10 mi
6:50 AM34 °FClear.2 mph87%30.18 "Hg10 mi
6:20 AM34 °FClear.1 mph87%30.15 "Hg10 mi
5:50 AM34 °FClear.2 mph87%30.15 "Hg10 mi
5:20 AM32 °FClear.2 mph93%30.15 "Hg10 mi
4:50 AM32 °FClear.1 mph87%30.15 "Hg10 mi
4:20 AM34 °FClear.1 mph87%30.15 "Hg10 mi
3:50 AM34 °FClear.2 mph87%30.15 "Hg10 mi
3:20 AM34 °FClear.2 mph81%30.12 "Hg10 mi
2:50 AM34 °FClear.2 mph87%30.12 "Hg10 mi
2:20 AM36 °FClear.2 mph81%30.12 "Hg10 mi
1:50 AM37 °FClear.2 mph81%30.12 "Hg10 mi
1:20 AM39 °FClear.1 mph70%30.12 "Hg10 mi
12:50 AM39 °FClear.2 mph70%30.12 "Hg10 mi
12:20 AM41 °FClear.2 mph66%30.09 "Hg10 mi
11:50 PM
Fri, Apr 17
41 °FClear.1 mph66%30.09 "Hg10 mi
11:20 PM45 °FClear.1 mph57%30.09 "Hg10 mi
10:50 PM45 °FClear.1 mph57%30.07 "Hg10 mi
10:20 PM46 °FClear.2 mph53%30.07 "Hg10 mi
9:50 PM46 °FPassing clouds.6 mph53%30.07 "HgN/A
9:20 PM48 °FPassing clouds.6 mph50%30.04 "HgN/A
Weather by CustomWeather, © 2015

See weather overviewHow to use our weather pages